Terminal Aerodrome Forecast
Issued by NWS

Home | Current Version | Previous Version | Text Only | Print | Product List | Glossary On
Versions: 1 2 3 4 5 6 7 8 9 10 11 12 13 14 15 16 17 18 19 20 21 22 23 24 25 26 27 28 29 30 31 32 33 34 35
000
FTUS41 KRNK 301901 AAA
TAFBCB
TAF AMD
KBCB 301901Z 3019/3118 29016G33KT P6SM OVC035
      TEMPO 3019/3020 3SM -SHSN BKN020
     FM302200 30015G25KT P6SM SCT030
     FM310400 29010G20KT P6SM SKC
     FM310900 30005KT P6SM SKC=

USA.gov is the U.S. government's official web portal to all federal, state and local government web resources and services.